BAW7D EGLL-KLAX

Flight info

Callsign BAW7D
Flight time N/A
Altitude 36000
Route ULTIB T420 TNT UL28 RODOL UM65 TENSO L603 BELOX DCT APSOV DCT SUNOT/M083F370 NATB NIFTY/M083F380 DCT MIBNO/N0486F380 DCT TUNNI DCT 58N080W 54N090W DCT HML DCT KP09A/N0475F400 DCT DPR DCT KD75U DCT MLF DCT WINEN/N0455F390 Q73 EEVUN/N0460F400 Q73 HAKMN ANJLL4
Aircraft A388/J-SADE2E3FGHIJ3J4J5M1RWXY/LB1D1

Departure

Time 2026-05-07 14:09
Airport London Heathrow Airport (EGLL)

Arrival

Time N/A
Airport Los Angeles International Airport (KLAX)
Time Latitude Longitude Altitude Speed Heading
2026-05-07 13:48 51.47220 -0.47736 95 ft 0 kts 89°
2026-05-07 13:56 51.47220 -0.47763 95 ft 3 kts 89°
2026-05-07 13:56 51.47220 -0.47793 92 ft 3 kts 89°
2026-05-07 13:56 51.47223 -0.47822 93 ft 3 kts 108°
2026-05-07 13:57 51.47233 -0.47847 93 ft 3 kts 130°
2026-05-07 13:57 51.47248 -0.47864 93 ft 3 kts 153°
2026-05-07 13:57 51.47266 -0.47871 94 ft 3 kts 175°
2026-05-07 13:57 51.47274 -0.47870 93 ft 0 kts 183°
2026-05-07 13:59 51.47266 -0.47871 94 ft 3 kts 183°
2026-05-07 13:59 51.47233 -0.47874 92 ft 6 kts 178°
2026-05-07 13:59 51.47182 -0.47872 92 ft 8 kts 181°
2026-05-07 13:59 51.47117 -0.47873 92 ft 10 kts 180°
2026-05-07 14:00 51.47040 -0.47873 92 ft 12 kts 180°
2026-05-07 14:00 51.46953 -0.47871 93 ft 13 kts 179°
2026-05-07 14:00 51.46859 -0.47870 92 ft 14 kts 180°
2026-05-07 14:00 51.46775 -0.47892 96 ft 9 kts 234°
2026-05-07 14:01 51.46746 -0.47994 95 ft 11 kts 262°
2026-05-07 14:01 51.46742 -0.48128 92 ft 13 kts 270°
2026-05-07 14:01 51.46740 -0.48286 92 ft 15 kts 270°
2026-05-07 14:01 51.46741 -0.48464 92 ft 17 kts 270°
2026-05-07 14:02 51.46742 -0.48600 94 ft 0 kts 270°
2026-05-07 14:02 51.46742 -0.48626 94 ft 4 kts 270°
2026-05-07 14:02 51.46739 -0.48694 92 ft 7 kts 251°
2026-05-07 14:02 51.46707 -0.48740 95 ft 7 kts 190°
2026-05-07 14:03 51.46695 -0.48742 96 ft 0 kts 182°
2026-05-07 14:03 51.46685 -0.48743 96 ft 2 kts 185°
2026-05-07 14:04 51.46660 -0.48748 94 ft 5 kts 188°
2026-05-07 14:04 51.46615 -0.48764 96 ft 6 kts 197°
2026-05-07 14:04 51.46614 -0.48765 96 ft 0 kts 197°
2026-05-07 14:05 51.46613 -0.48765 92 ft 0 kts 197°
2026-05-07 14:06 51.46602 -0.48770 96 ft 4 kts 197°
2026-05-07 14:06 51.46580 -0.48781 93 ft 6 kts 197°
2026-05-07 14:06 51.46537 -0.48784 94 ft 7 kts 173°
2026-05-07 14:06 51.46495 -0.48756 95 ft 6 kts 130°
2026-05-07 14:07 51.46480 -0.48707 97 ft 0 kts 89°
2026-05-07 14:07 51.46480 -0.48686 96 ft 3 kts 90°
2026-05-07 14:08 51.46479 -0.48421 96 ft 59 kts 90°
2026-05-07 14:08 51.46480 -0.47368 93 ft 126 kts 90°
2026-05-07 14:08 51.46483 -0.45700 96 ft 168 kts 90°
2026-05-07 14:08 51.46498 -0.43792 570 ft 168 kts 89°
2026-05-07 14:09 51.46634 -0.41936 1104 ft 172 kts 72°
2026-05-07 14:09 51.47094 -0.40399 1481 ft 178 kts 56°
2026-05-07 14:09 51.47832 -0.38803 1892 ft 185 kts 52°
2026-05-07 14:09 51.48673 -0.37120 2053 ft 201 kts 51°
2026-05-07 14:10 51.49587 -0.35316 2184 ft 214 kts 51°
2026-05-07 14:10 51.50561 -0.33397 2281 ft 234 kts 51°
2026-05-07 14:10 51.51692 -0.31356 2554 ft 254 kts 38°
2026-05-07 14:10 51.53320 -0.30170 3087 ft 261 kts 11°
2026-05-07 14:11 51.55130 -0.29773 3779 ft 265 kts
2026-05-07 14:11 51.56969 -0.29525 4483 ft 267 kts
2026-05-07 14:11 51.58837 -0.29255 5205 ft 270 kts
2026-05-07 14:11 51.60713 -0.28933 5911 ft 273 kts
2026-05-07 14:12 51.62616 -0.28568 6643 ft 276 kts
2026-05-07 14:12 51.64539 -0.28195 7301 ft 280 kts
2026-05-07 14:12 51.66474 -0.28537 7958 ft 282 kts 340°
2026-05-07 14:12 51.68207 -0.29960 8621 ft 285 kts 327°
2026-05-07 14:13 51.69906 -0.31654 9277 ft 289 kts 328°
2026-05-07 14:13 51.71634 -0.33328 9925 ft 292 kts 328°
2026-05-07 14:13 51.73403 -0.35026 10397 ft 302 kts 328°
2026-05-07 14:13 51.75259 -0.36812 10550 ft 320 kts 328°
2026-05-07 14:14 51.77234 -0.38719 10714 ft 337 kts 328°
2026-05-07 14:14 51.79278 -0.40696 11102 ft 344 kts 328°
2026-05-07 14:14 51.81334 -0.42687 11662 ft 347 kts 328°
2026-05-07 14:14 51.83418 -0.44708 12220 ft 350 kts 328°
2026-05-07 14:15 51.85507 -0.46734 12767 ft 353 kts 328°
2026-05-07 14:15 51.87604 -0.48771 13319 ft 356 kts 328°
2026-05-07 14:15 51.89738 -0.50843 13844 ft 359 kts 328°
2026-05-07 14:15 51.91887 -0.52936 14351 ft 361 kts 328°
2026-05-07 14:16 51.94046 -0.55042 14851 ft 364 kts 328°
2026-05-07 14:16 51.96220 -0.57167 15378 ft 366 kts 328°
2026-05-07 14:16 51.98399 -0.59296 15879 ft 368 kts 328°
2026-05-07 14:16 52.00605 -0.61454 16375 ft 370 kts 327°
2026-05-07 14:17 52.02817 -0.63621 16846 ft 373 kts 327°
2026-05-07 14:17 52.05049 -0.65809 17339 ft 375 kts 327°
2026-05-07 14:17 52.07286 -0.68007 17812 ft 377 kts 327°
2026-05-07 14:17 52.09540 -0.70222 18296 ft 379 kts 327°
2026-05-07 14:18 52.11808 -0.72456 18712 ft 382 kts 327°
2026-05-07 14:18 52.14083 -0.74697 19101 ft 384 kts 327°
2026-05-07 14:18 52.16376 -0.76960 19493 ft 386 kts 327°
2026-05-07 14:18 52.18680 -0.79235 19887 ft 388 kts 327°
2026-05-07 14:19 52.20991 -0.81521 20277 ft 390 kts 327°
2026-05-07 14:19 52.23296 -0.83804 20651 ft 392 kts 327°
2026-05-07 14:19 52.25638 -0.86125 21021 ft 395 kts 327°
2026-05-07 14:19 52.27983 -0.88453 21392 ft 397 kts 327°
2026-05-07 14:20 52.30357 -0.90814 21772 ft 399 kts 327°
2026-05-07 14:20 52.32742 -0.93187 22149 ft 401 kts 327°
2026-05-07 14:20 52.35074 -0.95511 22503 ft 404 kts 327°
2026-05-07 14:20 52.37544 -0.97977 22871 ft 406 kts 327°
2026-05-07 14:21 52.39963 -1.00393 23229 ft 409 kts 327°
2026-05-07 14:21 52.42400 -1.02831 23579 ft 411 kts 327°
2026-05-07 14:21 52.44852 -1.05287 23883 ft 413 kts 327°
2026-05-07 14:21 52.47278 -1.07720 24156 ft 415 kts 327°
2026-05-07 14:22 52.49750 -1.10203 24458 ft 418 kts 327°
2026-05-07 14:22 52.52244 -1.12711 24741 ft 420 kts 327°
2026-05-07 14:22 52.54740 -1.15224 25051 ft 422 kts 327°
2026-05-07 14:22 52.57254 -1.17759 25336 ft 425 kts 327°
2026-05-07 14:23 52.59783 -1.20309 25638 ft 427 kts 328°
2026-05-07 14:23 52.62323 -1.22875 25936 ft 430 kts 328°
2026-05-07 14:23 52.64882 -1.25464 26265 ft 432 kts 328°
2026-05-07 14:23 52.67453 -1.28070 26595 ft 435 kts 328°
2026-05-07 14:24 52.70041 -1.30697 26929 ft 438 kts 328°
2026-05-07 14:24 52.72637 -1.33336 27279 ft 440 kts 328°
2026-05-07 14:24 52.75260 -1.36009 27650 ft 443 kts 328°
2026-05-07 14:24 52.77893 -1.38694 27980 ft 446 kts 328°
2026-05-07 14:25 52.80505 -1.41363 28316 ft 449 kts 328°
2026-05-07 14:25 52.83209 -1.44130 28662 ft 452 kts 328°
2026-05-07 14:25 52.85855 -1.46840 29006 ft 455 kts 328°
2026-05-07 14:25 52.88559 -1.49614 29335 ft 458 kts 328°
2026-05-07 14:26 52.91278 -1.52407 29687 ft 461 kts 328°
2026-05-07 14:26 52.94019 -1.55229 30025 ft 464 kts 328°
2026-05-07 14:26 52.96765 -1.58058 30349 ft 467 kts 328°
2026-05-07 14:26 52.99534 -1.60916 30662 ft 469 kts 328°
2026-05-07 14:27 53.02313 -1.63790 30992 ft 472 kts 328°
2026-05-07 14:27 53.05104 -1.66681 31288 ft 475 kts 328°
2026-05-07 14:27 53.07910 -1.69592 31602 ft 477 kts 328°
2026-05-07 14:27 53.10732 -1.72526 31889 ft 480 kts 328°
2026-05-07 14:28 53.13570 -1.75482 32204 ft 482 kts 328°
2026-05-07 14:28 53.16417 -1.78451 32492 ft 484 kts 328°
2026-05-07 14:28 53.19283 -1.81445 32775 ft 487 kts 328°
2026-05-07 14:28 53.22164 -1.84459 33081 ft 489 kts 328°
2026-05-07 14:29 53.25055 -1.87477 33381 ft 492 kts 329°
2026-05-07 14:29 53.28020 -1.90351 33653 ft 494 kts 331°
2026-05-07 14:29 53.31033 -1.93145 33947 ft 496 kts 332°
2026-05-07 14:29 53.34040 -1.95933 34204 ft 499 kts 331°
2026-05-07 14:30 53.37074 -1.98773 34472 ft 500 kts 331°
2026-05-07 14:30 53.40111 -2.01645 34741 ft 502 kts 330°
2026-05-07 14:30 53.43150 -2.04536 35072 ft 502 kts 330°
2026-05-07 14:30 53.46192 -2.07439 35428 ft 502 kts 330°
2026-05-07 14:31 53.49226 -2.10341 35808 ft 500 kts 330°
2026-05-07 14:31 53.52249 -2.13238 36055 ft 503 kts 330°
2026-05-07 14:31 53.55245 -2.16187 36033 ft 503 kts 325°
2026-05-07 14:31 53.57955 -2.19851 36042 ft 499 kts 314°
2026-05-07 14:32 53.60215 -2.24283 36040 ft 499 kts 303°
2026-05-07 14:32 53.63249 -2.34720 36034 ft 497 kts 289°
2026-05-07 14:33 53.65743 -2.45584 36033 ft 497 kts 290°
2026-05-07 14:33 53.68243 -2.56481 36028 ft 497 kts 289°
2026-05-07 14:34 53.70713 -2.67370 36014 ft 496 kts 289°
2026-05-07 14:34 53.73157 -2.78212 36013 ft 496 kts 289°
2026-05-07 14:35 53.75611 -2.89157 36012 ft 495 kts 289°
2026-05-07 14:35 53.78028 -2.99997 36013 ft 495 kts 289°
2026-05-07 14:36 53.80449 -3.10906 36013 ft 496 kts 289°
2026-05-07 14:36 53.82865 -3.21851 36017 ft 496 kts 288°
2026-05-07 14:37 53.85266 -3.32788 36016 ft 496 kts 288°
2026-05-07 14:37 53.88964 -3.49172 36016 ft 498 kts 294°
2026-05-07 14:38 53.92350 -3.59446 36009 ft 499 kts 298°
2026-05-07 14:38 53.95789 -3.69678 36009 ft 499 kts 297°
2026-05-07 14:39 53.99233 -3.79933 36004 ft 499 kts 297°
2026-05-07 14:39 54.02652 -3.90129 36002 ft 499 kts 297°
2026-05-07 14:40 54.06085 -4.00423 36000 ft 499 kts 297°
2026-05-07 14:40 54.09503 -4.10724 35995 ft 499 kts 297°
2026-05-07 14:41 54.12880 -4.20944 35995 ft 498 kts 297°
2026-05-07 14:41 54.16281 -4.31282 35993 ft 498 kts 297°
2026-05-07 14:42 54.19661 -4.41598 35992 ft 498 kts 296°
2026-05-07 14:42 54.23036 -4.51944 35995 ft 498 kts 296°
2026-05-07 14:43 54.26402 -4.62310 35990 ft 498 kts 296°
2026-05-07 14:43 54.29766 -4.72708 35984 ft 498 kts 296°
2026-05-07 14:44 54.33089 -4.83024 35980 ft 497 kts 296°
2026-05-07 14:44 54.36422 -4.93419 35970 ft 497 kts 296°
2026-05-07 14:45 54.39188 -5.02077 35966 ft 497 kts 296°
2026-05-07 14:45 54.43056 -5.14239 35963 ft 496 kts 295°
2026-05-07 14:46 54.46341 -5.24618 35958 ft 496 kts 295°
2026-05-07 14:46 54.49097 -5.33358 35953 ft 496 kts 295°
2026-05-07 14:47 54.52364 -5.43760 35943 ft 496 kts 295°
2026-05-07 14:47 54.56184 -5.55980 35940 ft 496 kts 295°
2026-05-07 14:48 54.59443 -5.66456 35940 ft 496 kts 295°
2026-05-07 14:48 54.62695 -5.76955 35945 ft 496 kts 294°
2026-05-07 14:49 54.65915 -5.87398 35941 ft 495 kts 294°
2026-05-07 14:49 54.68621 -5.96208 35940 ft 495 kts 294°
2026-05-07 14:50 54.71825 -6.06679 35948 ft 495 kts 294°
2026-05-07 14:50 54.75573 -6.18990 35952 ft 494 kts 294°
2026-05-07 14:51 54.78232 -6.27765 35939 ft 494 kts 294°
2026-05-07 14:51 54.81427 -6.38350 35927 ft 494 kts 294°
2026-05-07 14:52 54.84595 -6.48892 35923 ft 494 kts 294°
2026-05-07 14:52 54.87765 -6.59485 35919 ft 493 kts 293°
2026-05-07 14:53 54.90902 -6.70017 35909 ft 493 kts 293°
2026-05-07 14:53 54.94043 -6.80614 35904 ft 492 kts 293°
2026-05-07 14:54 54.97172 -6.91214 35909 ft 491 kts 293°
2026-05-07 14:54 55.00287 -7.01815 35912 ft 491 kts 293°
2026-05-07 14:55 55.03370 -7.12352 35908 ft 490 kts 292°
2026-05-07 14:55 55.06458 -7.22954 35910 ft 490 kts 292°
2026-05-07 14:56 55.09533 -7.33563 35910 ft 489 kts 292°
2026-05-07 14:56 55.12597 -7.44180 35905 ft 489 kts 292°
2026-05-07 14:57 55.15647 -7.54798 35898 ft 488 kts 292°
2026-05-07 14:57 55.18677 -7.65392 35891 ft 487 kts 292°
2026-05-07 14:58 55.21704 -7.76025 35885 ft 486 kts 292°
2026-05-07 14:58 55.24689 -7.86560 35884 ft 485 kts 292°
2026-05-07 14:59 55.27681 -7.97164 35885 ft 485 kts 292°
2026-05-07 14:59 55.30654 -8.07754 35890 ft 484 kts 291°
2026-05-07 15:00 55.33621 -8.18367 35877 ft 483 kts 291°
2026-05-07 15:00 55.36575 -8.28983 35876 ft 482 kts 291°
2026-05-07 15:01 55.39513 -8.39593 35877 ft 482 kts 291°
2026-05-07 15:01 55.42435 -8.50195 35876 ft 482 kts 291°
2026-05-07 15:02 55.45353 -8.60826 35876 ft 481 kts 291°
2026-05-07 15:02 55.48231 -8.71364 35876 ft 481 kts 291°
2026-05-07 15:03 55.51125 -8.82007 35876 ft 481 kts 291°
2026-05-07 15:03 55.54006 -8.92654 35869 ft 480 kts 291°
2026-05-07 15:04 55.56881 -9.03327 35867 ft 480 kts 291°
2026-05-07 15:04 55.59745 -9.14013 35861 ft 480 kts 290°
2026-05-07 15:05 55.62582 -9.24642 35862 ft 480 kts 290°
2026-05-07 15:05 55.65427 -9.35357 35854 ft 480 kts 290°
2026-05-07 15:06 55.68258 -9.46068 35852 ft 480 kts 290°
2026-05-07 15:06 55.71083 -9.56804 35850 ft 480 kts 290°
2026-05-07 15:07 55.73899 -9.67561 35843 ft 480 kts 290°
2026-05-07 15:07 55.76692 -9.78266 35841 ft 481 kts 290°
2026-05-07 15:08 55.79497 -9.89047 35837 ft 481 kts 289°
2026-05-07 15:08 55.82293 -9.99871 35833 ft 481 kts 288°
2026-05-07 15:09 55.85022 -10.10723 35836 ft 482 kts 290°
2026-05-07 15:09 55.87913 -10.21522 35831 ft 482 kts 290°
2026-05-07 15:10 55.90765 -10.32350 35829 ft 482 kts 289°
2026-05-07 15:10 55.93565 -10.43136 35823 ft 482 kts 289°
2026-05-07 15:11 55.96367 -10.54009 35824 ft 482 kts 289°
2026-05-07 15:11 55.99161 -10.64902 35825 ft 482 kts 289°
2026-05-07 15:12 56.01943 -10.75801 35830 ft 482 kts 289°
2026-05-07 15:12 56.04712 -10.86704 35816 ft 481 kts 289°
2026-05-07 15:13 56.07452 -10.97546 35810 ft 481 kts 289°
2026-05-07 15:13 56.10200 -11.08468 35806 ft 480 kts 288°
2026-05-07 15:14 56.12931 -11.19384 35806 ft 479 kts 288°
2026-05-07 15:14 56.15651 -11.30304 35803 ft 479 kts 288°
2026-05-07 15:15 56.18362 -11.41241 35799 ft 478 kts 288°
2026-05-07 15:15 56.21054 -11.52159 35797 ft 477 kts 288°
2026-05-07 15:16 56.23715 -11.63007 35793 ft 477 kts 288°
2026-05-07 15:16 56.26382 -11.73936 35797 ft 476 kts 288°
2026-05-07 15:17 56.29034 -11.84854 35799 ft 476 kts 288°
2026-05-07 15:17 56.31675 -11.95781 35801 ft 475 kts 289°
2026-05-07 15:18 56.34301 -12.06702 35799 ft 475 kts 289°
2026-05-07 15:18 56.36920 -12.17648 35798 ft 474 kts 289°
2026-05-07 15:19 56.39508 -12.28518 35794 ft 474 kts 289°
2026-05-07 15:19 56.42096 -12.39443 35801 ft 473 kts 289°
2026-05-07 15:20 56.44680 -12.50407 35807 ft 473 kts 289°
2026-05-07 15:20 56.47251 -12.61374 35793 ft 473 kts 289°
2026-05-07 15:21 56.49816 -12.72367 35799 ft 474 kts 289°
2026-05-07 15:21 56.52354 -12.83306 35804 ft 474 kts 289°
2026-05-07 15:22 56.54901 -12.94339 35811 ft 474 kts 289°
2026-05-07 15:22 56.57441 -13.05395 35807 ft 475 kts 289°
2026-05-07 15:23 56.59959 -13.16414 35811 ft 475 kts 289°
2026-05-07 15:23 56.62480 -13.27506 35816 ft 475 kts 289°
2026-05-07 15:24 56.64994 -13.38625 35821 ft 475 kts 289°
2026-05-07 15:24 56.67499 -13.49760 35823 ft 475 kts 288°
2026-05-07 15:25 56.69987 -13.60882 35825 ft 475 kts 288°
2026-05-07 15:25 56.72465 -13.72018 35829 ft 474 kts 288°
2026-05-07 15:26 56.74918 -13.83098 35828 ft 474 kts 288°
2026-05-07 15:26 56.77374 -13.94256 35832 ft 474 kts 288°
2026-05-07 15:27 56.79819 -14.05419 35837 ft 473 kts 288°
2026-05-07 15:27 56.82252 -14.16589 35839 ft 473 kts 288°
2026-05-07 15:28 56.84671 -14.27755 35841 ft 473 kts 288°
2026-05-07 15:28 56.87068 -14.38877 35848 ft 472 kts 288°
2026-05-07 15:29 56.89466 -14.50069 35851 ft 472 kts 288°
2026-05-07 15:29 56.91852 -14.61258 35855 ft 472 kts 288°
2026-05-07 15:30 56.94232 -14.72487 35861 ft 472 kts 288°
2026-05-07 15:30 56.96582 -14.83625 35868 ft 472 kts 288°
2026-05-07 15:31 56.98957 -14.94913 35875 ft 471 kts 288°
2026-05-07 15:31 57.01327 -15.06058 35961 ft 474 kts 289°
2026-05-07 15:32 57.02585 -15.11660 36312 ft 474 kts 290°
2026-05-07 15:32 57.03850 -15.17244 36681 ft 473 kts 290°
2026-05-07 15:32 57.05122 -15.22866 36867 ft 477 kts 290°
2026-05-07 15:32 57.06382 -15.28465 36873 ft 472 kts 290°
2026-05-07 15:33 57.08861 -15.39579 36883 ft 470 kts 290°
2026-05-07 15:33 57.11311 -15.50673 36825 ft 472 kts 290°
2026-05-07 15:34 57.12544 -15.56275 36391 ft 471 kts 289°
2026-05-07 15:34 57.13768 -15.61850 36038 ft 467 kts 289°
2026-05-07 15:34 57.16195 -15.72953 36170 ft 470 kts 289°
2026-05-07 15:35 57.17422 -15.78590 36406 ft 472 kts 289°
2026-05-07 15:35 57.18629 -15.84150 36740 ft 472 kts 290°
2026-05-07 15:35 57.19851 -15.89793 36901 ft 476 kts 290°
2026-05-07 15:35 57.21070 -15.95439 36914 ft 470 kts 290°
2026-05-07 15:36 57.23477 -16.06624 36920 ft 470 kts 289°
2026-05-07 15:36 57.25882 -16.17873 36925 ft 470 kts 289°
2026-05-07 15:37 57.27871 -16.27221 36932 ft 470 kts 289°
2026-05-07 15:37 57.30257 -16.38487 36934 ft 471 kts 289°
2026-05-07 15:38 57.32637 -16.49794 36950 ft 472 kts 289°
2026-05-07 15:38 57.35013 -16.61133 36956 ft 472 kts 289°
2026-05-07 15:39 57.37377 -16.72489 36964 ft 472 kts 289°
2026-05-07 15:39 57.39718 -16.83794 36963 ft 472 kts 289°
2026-05-07 15:40 57.42064 -16.95188 36968 ft 472 kts 289°
2026-05-07 15:40 57.44393 -17.06565 36974 ft 472 kts 289°
2026-05-07 15:41 57.46716 -17.17977 36969 ft 471 kts 289°
2026-05-07 15:41 57.49024 -17.29380 36972 ft 471 kts 289°
2026-05-07 15:42 57.51318 -17.40778 36976 ft 470 kts 289°
2026-05-07 15:42 57.53598 -17.52169 36983 ft 470 kts 289°
2026-05-07 15:43 57.55873 -17.63605 36988 ft 470 kts 289°
2026-05-07 15:43 57.58134 -17.75033 36982 ft 470 kts 289°
2026-05-07 15:44 57.60384 -17.86474 37000 ft 470 kts 289°
2026-05-07 15:44 57.62612 -17.97869 37001 ft 470 kts 289°
2026-05-07 15:45 57.64845 -18.09352 37009 ft 471 kts 289°
2026-05-07 15:45 57.67072 -18.20881 37009 ft 471 kts 289°
2026-05-07 15:46 57.70373 -18.38093 37027 ft 471 kts 289°
2026-05-07 15:47 57.72578 -18.49672 37030 ft 471 kts 289°
2026-05-07 15:47 57.74768 -18.61243 37034 ft 471 kts 289°
2026-05-07 15:48 57.76947 -18.72829 37039 ft 472 kts 289°
2026-05-07 15:48 57.79115 -18.84429 37041 ft 472 kts 289°
2026-05-07 15:49 57.81279 -18.96071 37050 ft 472 kts 289°
2026-05-07 15:49 57.83429 -19.07711 37041 ft 472 kts 289°
2026-05-07 15:50 57.85571 -19.19382 37060 ft 472 kts 289°
2026-05-07 15:50 57.87689 -19.30995 37065 ft 473 kts 289°
2026-05-07 15:51 57.89810 -19.42694 37060 ft 473 kts 289°
2026-05-07 15:51 57.91924 -19.54425 37071 ft 473 kts 289°
2026-05-07 15:52 57.94024 -19.66156 37079 ft 473 kts 289°
2026-05-07 15:52 57.96113 -19.77901 37080 ft 473 kts 289°
2026-05-07 15:53 57.98200 -19.89680 37080 ft 473 kts 289°
2026-05-07 15:53 58.00280 -20.01460 37087 ft 473 kts 289°
2026-05-07 15:54 58.02964 -20.12725 37088 ft 473 kts 297°
2026-05-07 15:54 58.05911 -20.23842 37101 ft 473 kts 296°
2026-05-07 15:55 58.08760 -20.35057 37102 ft 474 kts 295°
2026-05-07 15:55 58.11575 -20.46362 37105 ft 474 kts 295°
2026-05-07 15:56 58.14369 -20.57669 37107 ft 475 kts 295°
2026-05-07 15:56 58.17139 -20.68953 37113 ft 475 kts 295°
2026-05-07 15:57 58.19915 -20.80338 37115 ft 475 kts 295°
2026-05-07 15:57 58.22682 -20.91742 37121 ft 476 kts 295°
2026-05-07 15:58 58.25439 -21.03165 37129 ft 476 kts 295°
2026-05-07 15:58 58.28189 -21.14616 37130 ft 476 kts 295°
2026-05-07 15:59 58.30930 -21.26093 37129 ft 477 kts 295°
2026-05-07 15:59 58.33659 -21.37581 37131 ft 477 kts 295°
2026-05-07 16:00 58.36374 -21.49069 37138 ft 477 kts 295°
2026-05-07 16:00 58.39091 -21.60632 37144 ft 478 kts 295°
2026-05-07 16:01 58.41804 -21.72236 37148 ft 478 kts 295°
2026-05-07 16:01 58.44487 -21.83776 37150 ft 478 kts 295°
2026-05-07 16:02 58.47175 -21.95397 37155 ft 478 kts 294°
2026-05-07 16:02 58.49853 -22.07038 37163 ft 478 kts 294°
2026-05-07 16:03 58.52523 -22.18714 37165 ft 478 kts 294°
2026-05-07 16:03 58.55178 -22.30384 37161 ft 478 kts 294°
2026-05-07 16:04 58.57822 -22.42070 37167 ft 478 kts 294°
2026-05-07 16:04 58.60454 -22.53769 37167 ft 477 kts 294°
2026-05-07 16:05 58.63075 -22.65483 37170 ft 477 kts 294°
2026-05-07 16:05 58.65682 -22.77200 37166 ft 477 kts 294°
2026-05-07 16:06 58.68275 -22.88917 37161 ft 476 kts 294°
2026-05-07 16:06 58.70855 -23.00640 37159 ft 476 kts 294°
2026-05-07 16:07 58.73405 -23.12295 37161 ft 476 kts 294°
2026-05-07 16:07 58.75963 -23.24052 37182 ft 475 kts 294°
2026-05-07 16:08 58.78510 -23.35824 37186 ft 475 kts 294°
2026-05-07 16:08 58.81039 -23.47583 37184 ft 475 kts 294°
2026-05-07 16:09 58.83562 -23.59373 37183 ft 475 kts 294°
2026-05-07 16:09 58.86055 -23.71097 37184 ft 474 kts 293°
2026-05-07 16:10 58.88553 -23.82908 37186 ft 474 kts 293°
2026-05-07 16:10 58.91041 -23.94743 37188 ft 474 kts 293°
2026-05-07 16:11 58.93513 -24.06571 37189 ft 474 kts 293°
2026-05-07 16:11 58.95960 -24.18341 37198 ft 474 kts 293°
2026-05-07 16:12 58.98408 -24.30189 37200 ft 473 kts 293°
2026-05-07 16:12 59.00849 -24.42073 37206 ft 473 kts 293°
2026-05-07 16:13 59.03277 -24.53961 37205 ft 473 kts 293°
2026-05-07 16:13 59.05689 -24.65842 37215 ft 473 kts 293°
2026-05-07 16:14 59.08089 -24.77737 37214 ft 473 kts 293°
2026-05-07 16:14 59.10465 -24.89579 37221 ft 472 kts 293°
2026-05-07 16:15 59.12845 -25.01512 37224 ft 472 kts 292°
2026-05-07 16:15 59.15211 -25.13449 37228 ft 472 kts 292°
2026-05-07 16:16 59.17564 -25.25392 37226 ft 472 kts 292°
2026-05-07 16:16 59.19909 -25.37362 37233 ft 472 kts 292°
2026-05-07 16:17 59.22237 -25.49322 37237 ft 471 kts 292°
2026-05-07 16:17 59.24557 -25.61310 37237 ft 471 kts 292°
2026-05-07 16:18 59.26849 -25.73227 37242 ft 471 kts 292°
2026-05-07 16:18 59.29146 -25.85246 37247 ft 471 kts 292°
2026-05-07 16:19 59.31432 -25.97279 37249 ft 471 kts 292°
2026-05-07 16:19 59.33703 -26.09308 37249 ft 471 kts 292°
2026-05-07 16:20 59.35963 -26.21357 37253 ft 471 kts 292°
2026-05-07 16:20 59.38213 -26.33424 37257 ft 471 kts 292°
2026-05-07 16:21 59.40450 -26.45500 37257 ft 470 kts 292°
2026-05-07 16:21 59.42673 -26.57577 37261 ft 470 kts 292°
2026-05-07 16:22 59.44888 -26.69682 37264 ft 470 kts 292°
2026-05-07 16:22 59.47077 -26.81723 37266 ft 470 kts 291°
2026-05-07 16:23 59.48911 -26.91877 37306 ft 470 kts 292°
2026-05-07 16:23 59.51085 -27.03976 37272 ft 472 kts 292°
2026-05-07 16:24 59.53264 -27.16179 37279 ft 472 kts 292°
2026-05-07 16:24 59.55432 -27.28406 37283 ft 472 kts 292°
2026-05-07 16:25 59.57591 -27.40663 37288 ft 473 kts 292°
2026-05-07 16:25 59.59738 -27.52930 37292 ft 472 kts 292°
2026-05-07 16:26 59.61871 -27.65199 37295 ft 472 kts 292°
2026-05-07 16:26 59.63993 -27.77488 37296 ft 472 kts 292°
2026-05-07 16:27 59.66089 -27.89702 37301 ft 471 kts 292°
2026-05-07 16:27 59.68189 -28.02029 37302 ft 471 kts 292°
2026-05-07 16:28 59.70269 -28.14318 37299 ft 471 kts 292°
2026-05-07 16:28 59.72327 -28.26559 37302 ft 470 kts 292°
2026-05-07 16:29 59.74381 -28.38858 37298 ft 470 kts 292°
2026-05-07 16:29 59.76427 -28.51198 37304 ft 470 kts 291°
2026-05-07 16:30 59.78462 -28.63551 37299 ft 470 kts 291°
2026-05-07 16:30 59.80483 -28.75907 37318 ft 470 kts 291°
2026-05-07 16:31 59.82489 -28.88262 37316 ft 470 kts 291°
2026-05-07 16:31 59.84473 -29.00557 37320 ft 469 kts 291°
2026-05-07 16:32 59.86457 -29.12949 37322 ft 469 kts 291°
2026-05-07 16:32 59.88426 -29.25329 37326 ft 469 kts 291°
2026-05-07 16:33 59.90386 -29.37739 37330 ft 469 kts 291°
2026-05-07 16:33 59.92333 -29.50155 37332 ft 469 kts 291°
2026-05-07 16:34 59.94257 -29.62490 37339 ft 469 kts 291°
2026-05-07 16:34 59.96201 -29.74993 37337 ft 469 kts 291°
2026-05-07 16:35 59.98108 -29.87339 37343 ft 468 kts 291°
2026-05-07 16:35 59.99992 -29.99804 37341 ft 469 kts 290°
2026-05-07 16:36 60.01677 -30.12433 37347 ft 469 kts 289°
2026-05-07 16:36 60.03455 -30.24971 37344 ft 468 kts 290°
2026-05-07 16:37 60.05231 -30.37533 37347 ft 468 kts 290°
2026-05-07 16:37 60.06976 -30.50085 37358 ft 468 kts 290°
2026-05-07 16:38 60.08705 -30.62670 37355 ft 469 kts 289°
2026-05-07 16:38 60.10404 -30.75192 37369 ft 469 kts 289°
2026-05-07 16:39 60.12098 -30.87795 37368 ft 469 kts 289°
2026-05-07 16:39 60.13783 -31.00431 37371 ft 469 kts 289°
2026-05-07 16:40 60.15452 -31.13051 37370 ft 468 kts 289°
2026-05-07 16:40 60.17115 -31.25724 37371 ft 468 kts 289°
2026-05-07 16:41 60.18760 -31.38374 37377 ft 468 kts 289°
2026-05-07 16:41 60.20396 -31.51057 37375 ft 468 kts 289°
2026-05-07 16:42 60.22017 -31.63722 37377 ft 467 kts 289°
2026-05-07 16:42 60.23625 -31.76402 37380 ft 467 kts 289°
2026-05-07 16:43 60.25220 -31.89080 37381 ft 467 kts 289°
2026-05-07 16:43 60.26803 -32.01782 37384 ft 467 kts 289°
2026-05-07 16:44 60.28363 -32.14395 37392 ft 467 kts 289°
2026-05-07 16:44 60.29919 -32.27095 37390 ft 466 kts 289°
2026-05-07 16:45 60.31465 -32.39816 37393 ft 466 kts 289°
2026-05-07 16:45 60.32986 -32.52452 37396 ft 465 kts 289°
2026-05-07 16:46 60.34503 -32.65160 37396 ft 465 kts 289°
2026-05-07 16:46 60.36007 -32.77870 37393 ft 465 kts 288°
2026-05-07 16:47 60.37496 -32.90572 37400 ft 464 kts 288°
2026-05-07 16:47 60.38971 -33.03271 37396 ft 464 kts 288°
2026-05-07 16:48 60.40436 -33.15995 37405 ft 464 kts 288°
2026-05-07 16:48 60.41887 -33.28716 37404 ft 464 kts 288°
2026-05-07 16:49 60.43327 -33.41456 37402 ft 463 kts 288°
2026-05-07 16:49 60.44742 -33.54095 37402 ft 463 kts 288°
2026-05-07 16:50 60.46153 -33.66816 37406 ft 462 kts 288°
2026-05-07 16:50 60.47550 -33.79540 37408 ft 462 kts 288°
2026-05-07 16:51 60.48935 -33.92266 37399 ft 462 kts 288°
2026-05-07 16:51 60.50307 -34.04992 37404 ft 461 kts 288°
2026-05-07 16:52 60.51656 -34.17633 37402 ft 461 kts 288°
2026-05-07 16:52 60.53001 -34.30361 37420 ft 460 kts 287°
2026-05-07 16:53 60.54331 -34.43064 37423 ft 459 kts 287°
2026-05-07 16:53 60.55648 -34.55774 37413 ft 459 kts 287°
2026-05-07 16:54 60.56953 -34.68487 37411 ft 459 kts 287°
2026-05-07 16:54 60.58235 -34.81114 37409 ft 458 kts 287°
2026-05-07 16:55 60.59513 -34.93829 37409 ft 457 kts 287°
2026-05-07 16:55 60.60778 -35.06540 37407 ft 457 kts 287°
2026-05-07 16:56 60.62027 -35.19221 37404 ft 456 kts 287°
2026-05-07 16:56 60.63869 -35.38170 37403 ft 455 kts 286°
2026-05-07 16:57 60.65085 -35.50846 37404 ft 455 kts 286°
2026-05-07 16:57 60.66286 -35.63496 37398 ft 454 kts 286°
2026-05-07 16:58 60.67475 -35.76154 37397 ft 454 kts 286°
2026-05-07 16:58 60.68653 -35.88836 37393 ft 454 kts 286°
2026-05-07 16:59 60.69811 -36.01429 37389 ft 455 kts 285°
2026-05-07 16:59 60.70966 -36.14135 37392 ft 455 kts 285°
2026-05-07 17:00 60.72110 -36.26868 37393 ft 456 kts 285°
2026-05-07 17:00 60.73244 -36.39630 37392 ft 456 kts 285°
2026-05-07 17:01 60.74367 -36.52414 37381 ft 457 kts 285°
2026-05-07 17:01 60.75478 -36.65203 37387 ft 457 kts 285°
2026-05-07 17:02 60.76577 -36.78005 37386 ft 457 kts 284°
2026-05-07 17:02 60.77663 -36.90816 37396 ft 457 kts 284°
2026-05-07 17:03 60.78737 -37.03624 37388 ft 457 kts 284°
2026-05-07 17:03 60.79791 -37.16360 37389 ft 457 kts 284°
2026-05-07 17:04 60.80841 -37.29201 37384 ft 456 kts 283°
2026-05-07 17:04 60.81878 -37.42032 37376 ft 456 kts 283°
2026-05-07 17:05 60.82902 -37.54872 37368 ft 456 kts 283°
2026-05-07 17:05 60.83915 -37.67720 37367 ft 456 kts 283°
2026-05-07 17:06 60.84914 -37.80573 37368 ft 456 kts 282°
2026-05-07 17:06 60.85897 -37.93375 37355 ft 456 kts 282°
2026-05-07 17:07 60.86872 -38.06240 37361 ft 457 kts 282°
2026-05-07 17:07 60.87837 -38.19147 37358 ft 457 kts 282°
2026-05-07 17:08 60.88792 -38.32086 37359 ft 457 kts 282°
2026-05-07 17:08 60.89575 -38.42842 37360 ft 458 kts 281°
2026-05-07 17:09 60.90507 -38.55793 37361 ft 458 kts 281°
2026-05-07 17:09 60.91575 -38.70871 37363 ft 458 kts 281°
2026-05-07 17:10 60.92329 -38.81665 37353 ft 458 kts 281°
2026-05-07 17:10 60.93223 -38.94639 37356 ft 458 kts 281°
2026-05-07 17:11 60.94105 -39.07628 37362 ft 458 kts 280°
2026-05-07 17:11 60.94975 -39.20619 37357 ft 458 kts 280°
2026-05-07 17:12 60.95830 -39.33592 37352 ft 457 kts 280°
2026-05-07 17:12 60.96672 -39.46557 37362 ft 457 kts 279°
2026-05-07 17:13 60.97503 -39.59527 37348 ft 456 kts 279°
2026-05-07 17:13 60.98327 -39.72469 37343 ft 456 kts 279°
2026-05-07 17:14 60.99141 -39.85418 37326 ft 455 kts 279°
2026-05-07 17:14 60.99943 -39.98360 37332 ft 455 kts 279°
2026-05-07 17:15 61.01228 -40.10974 37314 ft 452 kts 288°
2026-05-07 17:15 61.03153 -40.23351 37316 ft 453 kts 288°
2026-05-07 17:16 61.04966 -40.35798 37311 ft 454 kts 287°
2026-05-07 17:16 61.06710 -40.48347 37316 ft 455 kts 287°
2026-05-07 17:17 61.08422 -40.60864 37326 ft 456 kts 287°
2026-05-07 17:17 61.10131 -40.73502 37328 ft 457 kts 286°
2026-05-07 17:18 61.11831 -40.86186 37325 ft 457 kts 286°
2026-05-07 17:18 61.13522 -40.98907 37327 ft 458 kts 286°
2026-05-07 17:19 61.15200 -41.11634 37328 ft 459 kts 286°
2026-05-07 17:19 61.16860 -41.24324 37321 ft 459 kts 285°
2026-05-07 17:20 61.18520 -41.37117 37320 ft 460 kts 285°
2026-05-07 17:20 61.20170 -41.49946 37321 ft 460 kts 285°
2026-05-07 17:21 61.21810 -41.62806 37316 ft 460 kts 285°
2026-05-07 17:21 61.23438 -41.75672 37313 ft 461 kts 285°
2026-05-07 17:22 61.25054 -41.88560 37311 ft 461 kts 285°
2026-05-07 17:22 61.26647 -42.01377 37307 ft 461 kts 285°
2026-05-07 17:23 61.28241 -42.14306 37306 ft 461 kts 284°
2026-05-07 17:23 61.29821 -42.27236 37304 ft 461 kts 284°
2026-05-07 17:24 61.31389 -42.40187 37300 ft 461 kts 284°
2026-05-07 17:24 61.32946 -42.53159 37299 ft 461 kts 284°
2026-05-07 17:25 61.34480 -42.66055 37300 ft 462 kts 284°
2026-05-07 17:25 61.36012 -42.79049 37296 ft 462 kts 284°
2026-05-07 17:26 61.37535 -42.92090 37301 ft 462 kts 284°
2026-05-07 17:26 61.39043 -43.05107 37293 ft 462 kts 283°
2026-05-07 17:27 61.40541 -43.18172 37287 ft 462 kts 283°
2026-05-07 17:27 61.42023 -43.31220 37274 ft 462 kts 283°
2026-05-07 17:28 61.43485 -43.44198 37260 ft 462 kts 283°
2026-05-07 17:28 61.44944 -43.57289 37243 ft 461 kts 283°
2026-05-07 17:29 61.46389 -43.70375 37232 ft 461 kts 283°
2026-05-07 17:29 61.47808 -43.83350 37222 ft 461 kts 283°
2026-05-07 17:30 61.49228 -43.96456 37213 ft 460 kts 282°
2026-05-07 17:30 61.50630 -44.09522 37213 ft 460 kts 282°
2026-05-07 17:31 61.52022 -44.22635 37217 ft 460 kts 282°
2026-05-07 17:31 61.53399 -44.35721 37220 ft 460 kts 282°
2026-05-07 17:32 61.54757 -44.48765 37226 ft 460 kts 282°
2026-05-07 17:32 61.56106 -44.61855 37227 ft 459 kts 281°
2026-05-07 17:33 61.57443 -44.74955 37224 ft 459 kts 281°
2026-05-07 17:33 61.58766 -44.88056 37228 ft 458 kts 281°
2026-05-07 17:34 61.60079 -45.01190 37228 ft 458 kts 281°
2026-05-07 17:34 61.61376 -45.14302 37231 ft 458 kts 281°
2026-05-07 17:35 61.62660 -45.27423 37233 ft 458 kts 280°
2026-05-07 17:35 61.63931 -45.40551 37238 ft 458 kts 280°
2026-05-07 17:36 61.65181 -45.53606 37223 ft 458 kts 280°
2026-05-07 17:36 61.66425 -45.66735 37233 ft 458 kts 279°
2026-05-07 17:37 61.67660 -45.79905 37247 ft 457 kts 279°
2026-05-07 17:37 61.68880 -45.93069 37248 ft 458 kts 279°
2026-05-07 17:38 61.70086 -46.06229 37253 ft 458 kts 279°
2026-05-07 17:38 61.71283 -46.19442 37253 ft 458 kts 279°
2026-05-07 17:39 61.72460 -46.32569 37253 ft 458 kts 278°
2026-05-07 17:39 61.73629 -46.45770 37231 ft 458 kts 278°
2026-05-07 17:40 61.74791 -46.59042 37240 ft 458 kts 278°
2026-05-07 17:40 61.75937 -46.72289 37230 ft 458 kts 278°
2026-05-07 17:41 61.77069 -46.85539 37230 ft 458 kts 277°
2026-05-07 17:41 61.78181 -46.98704 37224 ft 458 kts 277°
2026-05-07 17:42 61.79288 -47.11964 37214 ft 458 kts 277°
2026-05-07 17:42 61.80382 -47.25245 37207 ft 458 kts 277°
2026-05-07 17:43 61.81463 -47.38530 37201 ft 458 kts 277°
2026-05-07 17:43 61.82532 -47.51827 37195 ft 459 kts 277°
2026-05-07 17:44 61.83591 -47.65180 37190 ft 459 kts 276°
2026-05-07 17:44 61.84629 -47.78427 37184 ft 459 kts 276°
2026-05-07 17:45 61.85661 -47.91772 37186 ft 459 kts 276°
2026-05-07 17:45 61.86683 -48.05172 37180 ft 460 kts 276°
2026-05-07 17:46 61.87691 -48.18564 37181 ft 460 kts 276°
2026-05-07 17:46 61.88685 -48.31964 37174 ft 459 kts 275°
2026-05-07 17:47 61.89661 -48.45274 37180 ft 460 kts 275°
2026-05-07 17:47 61.90635 -48.58759 37169 ft 459 kts 275°
2026-05-07 17:48 61.91582 -48.72072 37171 ft 459 kts 275°
2026-05-07 17:48 61.92522 -48.85467 37165 ft 459 kts 275°
2026-05-07 17:49 61.93452 -48.98908 37172 ft 459 kts 275°
2026-05-07 17:49 61.94366 -49.12325 37170 ft 459 kts 274°
2026-05-07 17:50 61.95268 -49.25767 37157 ft 459 kts 274°
2026-05-07 17:50 61.96157 -49.39204 37155 ft 459 kts 274°
2026-05-07 17:51 61.97034 -49.52668 37154 ft 459 kts 274°
2026-05-07 17:51 61.97897 -49.66056 37157 ft 460 kts 274°
2026-05-07 17:52 61.98759 -49.79525 37156 ft 460 kts 274°
2026-05-07 17:52 61.99502 -49.93018 37158 ft 457 kts 268°
2026-05-07 17:53 61.99278 -50.06469 37153 ft 453 kts 259°
2026-05-07 17:53 61.98054 -50.19547 37151 ft 451 kts 255°
2026-05-07 17:54 61.96998 -50.30390 37153 ft 451 kts 255°
2026-05-07 17:54 61.95729 -50.43442 37146 ft 451 kts 255°
2026-05-07 17:55 61.94434 -50.56479 37139 ft 451 kts 255°
2026-05-07 17:55 61.93119 -50.69482 37144 ft 450 kts 255°
2026-05-07 17:56 61.91788 -50.82476 37143 ft 450 kts 255°
2026-05-07 17:56 61.90447 -50.95446 37140 ft 450 kts 254°
2026-05-07 17:57 61.89093 -51.08411 37133 ft 450 kts 254°
2026-05-07 17:57 61.87736 -51.21282 37132 ft 449 kts 254°
2026-05-07 17:58 61.86359 -51.34217 37122 ft 449 kts 254°
2026-05-07 17:58 61.84972 -51.47112 37118 ft 449 kts 254°
2026-05-07 17:59 61.83573 -51.60007 37113 ft 449 kts 253°
2026-05-07 17:59 61.82162 -51.72878 37109 ft 449 kts 253°
2026-05-07 18:00 61.80741 -51.85728 37105 ft 449 kts 253°
2026-05-07 18:00 61.79307 -51.98570 37106 ft 448 kts 253°
2026-05-07 18:01 61.77863 -52.11382 37098 ft 448 kts 253°
2026-05-07 18:01 61.76414 -52.24123 37092 ft 448 kts 253°
2026-05-07 18:02 61.74206 -52.43313 37091 ft 448 kts 253°
2026-05-07 18:03 61.72719 -52.56096 37090 ft 448 kts 253°
2026-05-07 18:03 61.71219 -52.68876 37083 ft 448 kts 252°
2026-05-07 18:04 61.69708 -52.81634 37077 ft 448 kts 252°
2026-05-07 18:04 61.68187 -52.94362 37072 ft 448 kts 252°
2026-05-07 18:05 61.66663 -53.07014 37072 ft 448 kts 252°
2026-05-07 18:05 61.65113 -53.19761 37068 ft 449 kts 252°
2026-05-07 18:06 61.63555 -53.32473 37063 ft 449 kts 252°
2026-05-07 18:06 61.61984 -53.45175 37042 ft 449 kts 252°
2026-05-07 18:07 61.60401 -53.57870 37044 ft 449 kts 252°
2026-05-07 18:07 61.58819 -53.70452 37043 ft 449 kts 252°
2026-05-07 18:08 61.57213 -53.83116 37050 ft 449 kts 251°
2026-05-07 18:08 61.55595 -53.95765 37048 ft 449 kts 251°
2026-05-07 18:09 61.53963 -54.08420 37037 ft 449 kts 251°
2026-05-07 18:09 61.52322 -54.21046 37035 ft 449 kts 251°
2026-05-07 18:10 61.50668 -54.33668 37031 ft 449 kts 251°
2026-05-07 18:10 61.49000 -54.46293 37029 ft 449 kts 251°
2026-05-07 18:11 61.47322 -54.58894 37023 ft 449 kts 251°
2026-05-07 18:11 61.45647 -54.71372 37024 ft 449 kts 251°
2026-05-07 18:12 61.43945 -54.83950 37016 ft 449 kts 251°
2026-05-07 18:12 61.42238 -54.96466 37018 ft 449 kts 251°
2026-05-07 18:13 61.40516 -55.08997 37009 ft 449 kts 250°
2026-05-07 18:13 61.38778 -55.21540 37006 ft 448 kts 250°
2026-05-07 18:14 61.37033 -55.34039 37002 ft 448 kts 250°
2026-05-07 18:14 61.35279 -55.46513 36995 ft 448 kts 250°
2026-05-07 18:15 61.33510 -55.58989 36995 ft 448 kts 250°
2026-05-07 18:15 61.31742 -55.71368 36991 ft 449 kts 250°
2026-05-07 18:16 61.29954 -55.83796 36986 ft 449 kts 250°
2026-05-07 18:16 61.28152 -55.96226 36987 ft 449 kts 250°
2026-05-07 18:17 61.26336 -56.08662 36981 ft 449 kts 250°
2026-05-07 18:17 61.24512 -56.21056 36966 ft 449 kts 250°
2026-05-07 18:18 61.22678 -56.33431 36964 ft 449 kts 249°
2026-05-07 18:18 61.20832 -56.45798 36962 ft 449 kts 249°
2026-05-07 18:19 61.18974 -56.58148 36963 ft 448 kts 249°
2026-05-07 18:19 61.17109 -56.70465 36964 ft 448 kts 249°
2026-05-07 18:20 61.15227 -56.82797 36959 ft 448 kts 249°
2026-05-07 18:20 61.13351 -56.95010 36957 ft 448 kts 249°
2026-05-07 18:21 61.11447 -57.07310 36954 ft 448 kts 249°
2026-05-07 18:21 61.09537 -57.19567 36952 ft 448 kts 249°
2026-05-07 18:22 61.07616 -57.31809 36951 ft 448 kts 249°
2026-05-07 18:22 61.05688 -57.44011 36939 ft 447 kts 249°
2026-05-07 18:23 61.03737 -57.56266 37312 ft 451 kts 248°
2026-05-07 18:23 61.02752 -57.62425 37572 ft 453 kts 248°
2026-05-07 18:23 61.01759 -57.68609 37833 ft 455 kts 248°
2026-05-07 18:23 61.00759 -57.74836 37951 ft 461 kts 248°
2026-05-07 18:24 60.99763 -57.81029 37943 ft 455 kts 248°
2026-05-07 18:24 60.97774 -57.93357 37926 ft 455 kts 248°
2026-05-07 18:25 60.96112 -58.05956 37928 ft 461 kts 257°
2026-05-07 18:25 60.95293 -58.19068 37925 ft 462 kts 259°
2026-05-07 18:26 60.94464 -58.32183 37923 ft 462 kts 258°
2026-05-07 18:26 60.93567 -58.45269 37914 ft 462 kts 258°
2026-05-07 18:27 60.92641 -58.58337 37911 ft 462 kts 257°
2026-05-07 18:27 60.91702 -58.71393 37910 ft 462 kts 257°
2026-05-07 18:28 60.90750 -58.84466 37905 ft 462 kts 257°
2026-05-07 18:28 60.89785 -58.97527 37898 ft 463 kts 257°
2026-05-07 18:29 60.88806 -59.10596 37893 ft 463 kts 257°
2026-05-07 18:29 60.87819 -59.23604 37889 ft 463 kts 257°
2026-05-07 18:30 60.86813 -59.36677 37889 ft 464 kts 257°
2026-05-07 18:30 60.85791 -59.49782 37888 ft 464 kts 257°
2026-05-07 18:31 60.84757 -59.62877 37885 ft 465 kts 257°
2026-05-07 18:31 60.83715 -59.75907 37886 ft 465 kts 257°
2026-05-07 18:32 60.82654 -59.89002 37880 ft 466 kts 256°
2026-05-07 18:32 60.81576 -60.02145 37879 ft 466 kts 256°
2026-05-07 18:33 60.80488 -60.15252 37875 ft 467 kts 256°
2026-05-07 18:33 60.79392 -60.28279 37875 ft 467 kts 256°
2026-05-07 18:34 60.78275 -60.41397 37879 ft 468 kts 256°
2026-05-07 18:34 60.77142 -60.54556 37882 ft 468 kts 256°
2026-05-07 18:35 60.75996 -60.67697 37864 ft 469 kts 256°
2026-05-07 18:35 60.74836 -60.80838 37861 ft 470 kts 256°
2026-05-07 18:36 60.73668 -60.93920 37855 ft 470 kts 256°
2026-05-07 18:36 60.72481 -61.07068 37863 ft 471 kts 256°
2026-05-07 18:37 60.71278 -61.20227 37859 ft 471 kts 256°
2026-05-07 18:37 60.70062 -61.33393 37857 ft 472 kts 255°
2026-05-07 18:38 60.68831 -61.46565 37858 ft 472 kts 255°
2026-05-07 18:38 60.67586 -61.59729 37851 ft 473 kts 255°
2026-05-07 18:39 60.66539 -61.70697 37851 ft 473 kts 255°
2026-05-07 18:39 60.65059 -61.86030 37845 ft 473 kts 255°
2026-05-07 18:40 60.63774 -61.99181 37838 ft 474 kts 255°
2026-05-07 18:40 60.62473 -62.12352 37841 ft 474 kts 255°
2026-05-07 18:41 60.61380 -62.23319 37836 ft 474 kts 255°